Date String (YYYY-MM-DD hh:mm:ss) UTC,Instrument flags,absolute air pressure of the measurement (hPa),sample flow rate (lpm),inlet stack bypass flow (lpm),air temperature of the measurement (°C),ambient temperature measured by the external sensor (°C),aerosol sample conditioner tube jacket temperature (°C),OPC LED temperature (°C),internal box temperature (°C),relative humidity of the measurement (%),span deviation,mass concentration of particles derived from Lorenz-Mie calculation of OPC scattering (μg/m³),mass concentration of particles derived from Lorenz-Mie calculation of OPC scattering (μg/m³),mass concentration of particles derived from Lorenz-Mie calculation of OPC scattering (μg/m³)
DateTimeUTC,F1_M11,P_M11,Q1_M11,Q2_M11,T1_M11,T2_M11,T3_M11,T4_M11,T5_M11,U1_M11,ZSPAN_M11,X2_M11,X0_M11,X1_M11
2024-01-29 13:00:00,SystemResetWarning,0836.9,5.01,000.00,022.3,021.2,000.0,030.6,023.6,15.1,0000.0,0000.29,0000.38,0000.25
2024-01-29 13:01:00,SystemResetWarning,0837.0,5.01,000.00,022.3,021.2,000.0,030.6,023.6,15.0,0000.0,0000.30,0000.42,0000.25
2024-01-29 13:02:00,SystemResetWarning,0837.0,5.00,000.00,022.3,021.2,000.0,030.6,023.7,15.0,0000.0,0000.32,0000.45,0000.25
2024-01-29 13:03:00,SystemResetWarning,0836.9,5.00,000.00,022.3,021.2,000.0,030.6,023.7,14.9,0000.0,0000.31,0000.44,0000.25
2024-01-29 13:04:00,SystemResetWarning,0836.9,5.00,000.00,022.3,021.2,000.0,030.6,023.7,14.9,0000.0,0000.31,0000.44,0000.25
2024-01-29 13:05:00,SystemResetWarning,0836.9,5.00,000.00,022.3,021.2,000.0,030.6,023.6,14.9,0000.0,0000.31,0000.44,0000.24
2024-01-29 13:06:00,SystemResetWarning,0836.9,4.99,000.00,022.3,021.2,000.0,030.6,023.6,15.1,0000.0,0000.30,0000.43,0000.24
2024-01-29 13:07:00,SystemResetWarning,0836.9,4.99,000.00,022.3,021.2,000.0,030.6,023.6,15.1,0000.0,0000.32,0000.47,0000.24
2024-01-29 13:08:00,SystemResetWarning,0836.9,5.00,000.00,022.3,021.2,000.0,030.6,023.6,15.1,0000.0,0000.32,0000.47,0000.24
2024-01-29 13:09:00,SystemResetWarning,0837.0,5.01,000.00,022.3,021.2,000.0,030.6,023.6,15.1,0000.0,0000.29,0000.41,0000.23
2024-01-29 13:10:00,SystemResetWarning,0837.0,5.01,000.00,022.2,021.2,000.0,030.6,023.6,15.1,0000.0,0000.28,0000.41,0000.23
2024-01-29 13:11:00,SystemResetWarning,0837.0,5.00,000.00,022.2,021.2,000.0,030.6,023.6,15.1,0000.0,0000.27,0000.38,0000.22
2024-01-29 13:12:00,SystemResetWarning,0837.0,4.99,000.00,022.2,021.2,000.0,030.6,023.6,15.1,0000.0,0000.27,0000.36,0000.23
2024-01-29 13:13:00,SystemResetWarning,0836.9,4.99,000.00,022.2,021.2,000.0,030.6,023.6,15.1,0000.0,0000.25,0000.32,0000.23
2024-01-29 13:14:00,SystemResetWarning,0836.9,5.00,000.00,022.2,021.2,000.0,030.6,023.6,15.1,0000.0,0000.25,0000.32,0000.23
2024-01-29 13:15:00,SystemResetWarning,0836.8,5.00,000.00,022.2,021.2,000.0,030.6,023.6,15.2,0000.0,0000.26,0000.33,0000.23
2024-01-29 13:16:00,SystemResetWarning,0836.8,5.00,000.00,022.2,021.2,000.0,030.6,023.6,15.1,0000.0,0000.26,0000.33,0000.23
2024-01-29 13:17:00,SystemResetWarning,0836.8,5.00,000.00,022.2,021.2,000.0,030.6,023.6,15.1,0000.0,0000.26,0000.32,0000.23
2024-01-29 13:18:00,SystemResetWarning,0836.8,5.00,000.00,022.2,021.2,000.0,030.6,023.6,15.2,0000.0,0000.24,0000.28,0000.23
2024-01-29 13:19:00,SystemResetWarning,0836.8,5.01,000.00,022.2,021.2,000.0,030.6,023.6,15.2,0000.0,0000.24,0000.30,0000.23
2024-01-29 13:20:00,SystemResetWarning,0836.8,5.01,000.00,022.2,021.2,000.0,030.6,023.6,15.3,0000.0,0000.25,0000.31,0000.23
2024-01-29 13:21:00,SystemResetWarning,0836.8,5.00,000.00,022.2,021.2,000.0,030.5,023.6,15.2,0000.0,0000.25,0000.30,0000.24
2024-01-29 13:22:00,SystemResetWarning,0836.8,5.00,000.00,022.2,021.1,000.0,030.5,023.5,15.1,0000.0,0000.27,0000.41,0000.25
2024-01-29 13:23:00,SystemResetWarning,0836.8,5.00,000.00,022.2,021.1,000.0,030.5,023.5,15.0,0000.0,0000.28,0000.54,0000.25
2024-01-29 13:24:00,SystemResetWarning,0836.8,5.00,000.00,022.2,021.1,000.0,030.5,023.5,15.0,0000.0,0000.29,0000.63,0000.26
2024-01-29 13:25:00,SystemResetWarning,0836.8,5.00,000.00,022.2,021.1,000.0,030.5,023.5,15.1,0000.0,0000.30,0000.67,0000.26
2024-01-29 13:26:00,SystemResetWarning,0836.8,5.00,000.00,022.2,021.1,000.0,030.5,023.5,15.1,0000.0,0000.30,0000.67,0000.26
2024-01-29 13:27:00,SystemResetWarning,0836.8,5.00,000.00,022.2,021.1,000.0,030.5,023.5,15.0,0000.0,0000.31,0000.68,0000.27
2024-01-29 13:28:00,SystemResetWarning,0836.9,5.00,000.00,022.2,021.1,000.0,030.5,023.5,15.1,0000.0,0000.33,0000.70,0000.28
2024-01-29 13:29:00,SystemResetWarning,0836.9,5.00,000.00,022.1,021.1,000.0,030.5,023.5,15.1,0000.0,0000.35,0000.72,0000.30
2024-01-29 13:30:00,SystemResetWarning,0836.9,5.00,000.00,022.1,021.1,000.0,030.5,023.5,15.2,0000.0,0000.37,0000.76,0000.32
2024-01-29 13:31:00,SystemResetWarning,0836.9,5.00,000.00,022.1,021.1,000.0,030.5,023.5,15.2,0000.0,0000.39,0000.79,0000.33
2024-01-29 13:32:00,SystemResetWarning,0836.9,5.00,000.00,022.1,021.1,000.0,030.5,023.5,15.3,0000.0,0000.38,0000.79,0000.33
2024-01-29 13:33:00,SystemResetWarning,0836.9,5.00,000.00,022.1,021.1,000.0,030.5,023.4,15.3,0000.0,0000.36,0000.67,0000.32
2024-01-29 13:34:00,SystemResetWarning,0836.9,5.00,000.00,022.1,021.0,000.0,030.5,023.5,15.3,0000.0,0000.34,0000.53,0000.31
2024-01-29 13:35:00,SystemResetWarning,0836.8,5.00,000.00,022.1,021.1,000.0,030.5,023.5,15.2,0000.0,0000.34,0000.46,0000.30
2024-01-29 13:36:00,SystemResetWarning,0836.9,5.00,000.00,022.1,021.1,000.0,030.5,023.5,15.3,0000.0,0000.32,0000.41,0000.30
2024-01-29 13:37:00,SystemResetWarning,0836.8,5.00,000.00,022.1,021.1,000.0,030.5,023.5,15.3,0000.0,0000.32,0000.41,0000.29
2024-01-29 13:38:00,SystemResetWarning,0836.8,5.00,000.00,022.1,021.1,000.0,030.5,023.5,15.3,0000.0,0000.30,0000.39,0000.27
2024-01-29 13:39:00,SystemResetWarning,0836.8,5.00,000.00,022.1,021.1,000.0,030.5,023.5,15.3,0000.0,0000.29,0000.37,0000.26
2024-01-29 13:40:00,SystemResetWarning,0836.8,5.00,000.00,022.1,021.1,000.0,030.5,023.5,15.3,0000.0,0000.27,0000.35,0000.24
2024-01-29 13:41:00,SystemResetWarning,0836.8,5.00,000.00,022.1,021.1,000.0,030.5,023.5,15.3,0000.0,0000.25,0000.32,0000.22
2024-01-29 13:42:00,SystemResetWarning,0836.8,5.01,000.00,022.1,021.1,000.0,030.4,023.5,15.3,0000.0,0000.23,0000.30,0000.21
2024-01-29 13:43:00,SystemResetWarning,0836.8,5.00,000.00,022.1,021.1,000.0,030.4,023.5,15.3,0000.0,0000.23,0000.29,0000.20
2024-01-29 13:44:00,SystemResetWarning,0836.8,5.00,000.00,022.1,021.1,000.0,030.4,023.5,15.3,0000.0,0000.22,0000.29,0000.20
2024-01-29 13:45:00,SystemResetWarning,0836.8,5.00,000.00,022.1,021.1,000.0,030.4,023.5,15.3,0000.0,0000.22,0000.29,0000.19
2024-01-29 13:46:00,SystemResetWarning,0836.8,5.00,000.00,022.1,021.1,000.0,030.4,023.5,15.2,0000.0,0000.22,0000.30,0000.19
2024-01-29 13:47:00,SystemResetWarning,0836.8,5.00,000.00,022.1,021.1,000.0,030.4,023.5,15.3,0000.0,0000.22,0000.30,0000.19
2024-01-29 13:48:00,SystemResetWarning,0836.9,5.00,000.00,022.1,021.1,000.0,030.4,023.5,15.4,0000.0,0000.22,0000.29,0000.19
2024-01-29 13:49:00,SystemResetWarning,0836.9,4.99,000.00,022.1,021.1,000.0,030.4,023.5,15.4,0000.0,0000.23,0000.30,0000.20
2024-01-29 13:50:00,SystemResetWarning,0837.0,5.00,000.00,022.1,021.1,000.0,030.4,023.5,15.4,0000.0,0000.23,0000.30,0000.19
2024-01-29 13:51:00,SystemResetWarning,0837.0,5.00,000.00,022.1,021.1,000.0,030.4,023.5,15.5,0000.0,0000.23,0000.30,0000.19
2024-01-29 13:52:00,SystemResetWarning,0837.0,5.02,000.00,022.1,021.1,000.0,030.4,023.5,15.4,0000.0,0000.23,0000.33,0000.19
2024-01-29 13:53:00,SystemResetWarning,0837.0,5.00,000.00,022.1,021.1,000.0,030.4,023.5,15.4,0000.0,0000.22,0000.32,0000.19
2024-01-29 13:54:00,SystemResetWarning,0837.0,5.00,000.00,022.1,021.1,000.0,030.4,023.5,15.4,0000.0,0000.23,0000.33,0000.19
2024-01-29 13:55:00,SystemResetWarning,0837.0,4.99,000.00,022.1,021.1,000.0,030.4,023.5,15.4,0000.0,0000.22,0000.32,0000.19
2024-01-29 13:56:00,SystemResetWarning,0837.0,5.00,000.00,022.1,021.1,000.0,030.4,023.5,15.4,0000.0,0000.23,0000.31,0000.19
2024-01-29 13:57:00,SystemResetWarning,0837.0,5.00,000.00,022.1,021.1,000.0,030.4,023.5,15.4,0000.0,0000.23,0000.31,0000.19
2024-01-29 13:58:00,SystemResetWarning,0836.9,4.99,000.00,022.1,021.1,000.0,030.4,023.5,15.3,0000.0,0000.23,0000.32,0000.20
2024-01-29 13:59:00,SystemResetWarning,0836.9,5.01,000.00,022.1,021.1,000.0,030.4,023.5,15.3,0000.0,0000.23,0000.32,0000.20
